Tracking 35334 objects as of 13-Sep-2026
HD Live streaming from Space Station
objects crossing your sky now

STARLINK-3928

Track STARLINK-3928 now!
10-day predictions
STARLINK-3928 is classified as:


NORAD ID: 52606
Int'l Code: 2022-052J
Launch date: May 14, 2022
Source: United States (US)
Launch site: AIR FORCE EASTERN TEST RANGE (AFETR)
Your satellite tracking list
Your tracking list is empty




NASA's NSSDC Master Catalog

Two Line Element Set (TLE):
1 52606U 22052J   26256.00796850  .00000067  00000-0  18742-4 0  9995
2 52606  53.1628 154.4189 0001717  88.1800 271.9392 15.17589189239189
Source of the keplerian elements: AFSPC